Location: Unspecified
(48.8656°N, 0.0000°E)
Time: 17:58:13
(UTC+00:00)

Transit 2A Rocket - Pass Details

Date: 19 June 2019
Orbit: 588 x 915 km, 66.7° (Epoch: 20 July)

Event Time Altitude Azimuth Distance (km) Brightness Sun altitude
Rises 09:13:22 0° 155° (SSE) 3,534 8.9 48.4°
Reaches altitude 10° 09:17:11 10° 132° (SE) 2,600 8.6 49.0°
Maximum altitude 09:20:08 14° 103° (ESE) 2,316 8.5 49.4°
Drops below altitude 10° 09:23:03 10° 73° (ENE) 2,578 8.3 49.9°
Sets 09:26:48 0° 50° (NE) 3,483 8.6 50.4°
